User: anonymous   Login
Location: Sperry Observatory
(40.6664°N, 74.3236°W)
Time: 14:38:04
(UTC-05:00)
Language:

FO-29 - Orbit

View from above orbital plane
View from above orbital plane
View from above satellite
View from above satellite

Ground track
Ground track

The orbit data is extracted from the following two-line orbital elements,

1 24278U 96046B   17349.55030173 -.00000048  00000-0 -11120-4 0  9999
2 24278  98.5335 208.4250 0349588 227.1856 129.9408 13.53080412 53409
Epoch (UTC): 15 December 2017 13:12:26
Eccentricity: 0.0349588
inclination: 98.5335°
perigee height: 801 km
apogee height: 1321 km
right ascension of ascending node: 208.4250°
argument of perigee: 227.1856°
revolutions per day: 13.53080412
mean anomaly at epoch: 129.9408°
orbit number at epoch: 5340

The dashed part of the orbit path shows where the satellite is in the earth's shadow,  

DLR